This is the latest recevied weather packets stored in our database for station/object W8BS. If no packets are shown the sender has not sent any weather packets the latest 10 day(s).
| Time | Temp. | Humidity | Pressure | Rain* | Wind** | Luminosity | Snow |
|---|---|---|---|---|---|---|---|
| 1778008611 | 22.78° C | 45% | 1010.7 hPa | 0 mm | - | 371 W/m² | - |
| 1778008309 | 23.33° C | 43% | 1010.7 hPa | 0 mm | - | 419 W/m² | - |
| 1778008004 | 22.78° C | 45% | 1010.7 hPa | 0 mm | - | 388 W/m² | - |
| 1778007704 | 23.33° C | 44% | 1010.9 hPa | 0 mm | - | 492 W/m² | - |
| 1778007401 | 23.33° C | 45% | 1011 hPa | 0 mm | - | 534 W/m² | - |
| 1778007097 | 22.78° C | 44% | 1010.8 hPa | 0 mm | - | 495 W/m² | - |
| 1778006794 | 22.78° C | 43% | 1011 hPa | 0 mm | - | 459 W/m² | - |
| 1778006491 | 23.33° C | 43% | 1010.9 hPa | 0 mm | - | 456 W/m² | - |
| 1778006188 | 23.33° C | 44% | 1010.9 hPa | 0 mm | - | 510 W/m² | - |
| 1778005886 | 22.78° C | 43% | 1011 hPa | 0 mm | - | 505 W/m² | - |
| 1778005582 | 23.33° C | 44% | 1011.3 hPa | 0 mm | - | 482 W/m² | - |
| 1778005279 | 23.33° C | 44% | 1011 hPa | 0 mm | - | 483 W/m² | - |
| 1778004975 | 22.78° C | 43% | 1011 hPa | 0 mm | - | 517 W/m² | - |
| 1778004673 | 22.78° C | 44% | 1010.9 hPa | 0 mm | - | 552 W/m² | - |
| 1778004368 | 23.33° C | 44% | 1011 hPa | 0 mm | - | 553 W/m² | - |
| 1778004066 | 23.33° C | 44% | 1011.2 hPa | 0 mm | - | 553 W/m² | - |
| 1778003762 | 22.78° C | 45% | 1011.2 hPa | 0 mm | - | 600 W/m² | - |
| 1778003459 | 22.78° C | 45% | 1011.4 hPa | 0 mm | - | 641 W/m² | - |
| 1778003155 | 22.22° C | 48% | 1011.3 hPa | 0 mm | - | 642 W/m² | - |
| 1778002851 | 23.89° C | 44% | 1011.3 hPa | 0 mm | - | 573 W/m² | - |
| 1778002548 | 23.33° C | 46% | 1011.2 hPa | 0 mm | - | 668 W/m² | - |
| 1778002245 | 22.78° C | 46% | 1011.6 hPa | 0 mm | - | 697 W/m² | - |
| 1778001943 | 22.78° C | 45% | 1011.6 hPa | 0 mm | - | 745 W/m² | - |
| 1778001639 | 22.78° C | 47% | 1011.3 hPa | 0 mm | - | 758 W/m² | - |
| 1778001334 | 22.22° C | 49% | 1011.6 hPa | 0 mm | - | 426 W/m² | - |
* Rain latest hour (hover to see other rain measurements)
** Current wind speed in m/s (hover to see current wind gust speed)